Regional Weather Roundup
Issued by NWS Bismarck, ND

Home | Current Version | Previous Version | Text Only | Print | Product List | Glossary On
Versions: 1 2 3 4 5 6 7 8 9 10 11 12 13 14 15 16 17 18 19 20 21 22 23 24 25 26 27 28 29 30 31 32 33 34 35 36 37 38 39 40 41 42 43 44 45 46 47 48 49 50
000
ASUS43 KBIS 220020
RWRBIS

NWR BROADCAST TEXT
NATIONAL WEATHER SERVICE BISMARCK ND
600 PM CST SUN DEC 21 2014

NOTE: "FAIR" INDICATES FEW OR NO CLOUDS BELOW 12,000 FEET WITH NO
SIGNIFICANT WEATHER AND/OR OBSTRUCTIONS TO VISIBILITY.


CITY           SKY/WX    TMP DP  RH WIND       PRES   REMARKS
WILLISTON      CLOUDY    35  28  75 CALM      29.35R
MINOT          CLOUDY    34  30  85 E10       29.40R
MINOT AFB      MOCLDY    32  32 100 E13       29.39S
BISMARCK       PTCLDY    29  28  96 SE12      29.44R WCI  19
DICKINSON      LGT RAIN  40  36  86 SW10      29.34R
GARRISON         N/A     30  27  88 S9        29.40R
HETTINGER ARPT MIX PCPN  37  29  72 CALM      29.39R
JAMESTOWN      CLOUDY    32  30  92 E10       29.49S
BEACH          LGT RAIN  36  36 100 W9        29.37R
CARRINGTON     CLOUDY    30  30 100 MISG      29.49F FOG
CROSBY         FAIR      32  32 100 SE3       29.36S
HARVEY         CLOUDY    28  28 100 SE17G23   29.45S FOG     WCI  16
HAZEN          CLOUDY    32  28  86 CALM      29.41R
LINTON         CLOUDY    30  30 100 SE13      29.44F FOG
MANDAN         FAIR      30  28  93 SE10      29.42R
OAKES            N/A     28  28 100 E12       29.52R FOG     WCI  18
RUGBY          CLOUDY    28  28 100 SE15      29.46S FOG     WCI  17
STANLEY        CLOUDY    32  32 100 SE5       29.37R
TIOGA          CLOUDY    32  32 100 S7        29.38S
WATFORD CITY   MOCLDY    36  28  75 CALM      29.34S
$$

CITY           SKY/WX    TMP DP  RH WIND       PRES   REMARKS
GRAND FORKS    CLOUDY    32  30  92 SE13      29.59F
GRAND FORKS AF CLOUDY    32  32 100 S9        29.58F
DEVILS LAKE    CLOUDY    30  23  74 SE13      29.49S
FARGO          CLOUDY    35  31  85 SE12      29.58F
CANDO          CLOUDY    30  30 100 SE12G18   29.50S FOG
CAVALIER       CLOUDY    32  32 100 SE9       29.58F FOG
GWINNER        CLOUDY    34  34 100 SE14      29.55R
LANGDON        FOG       28  28 100 MISG      29.52S VSB 1/2
ROLLA          FOG       27  27 100 S13       29.49S VSB 1/4 WCI  16
WALHALLA         N/A     30  30 100 SE14      29.57S FOG     WCI  20
$$

CITY           SKY/WX    TMP DP  RH WIND       PRES   REMARKS
ABERDEEN       CLOUDY    33  30  88 SE5       29.51S
MOBRIDGE       MOCLDY    30  28  92 E12       29.41R
BUFFALO          N/A     37  35  92 W8        29.33R
RAPID CITY     CLOUDY    39  27  62 N8        29.41R
GLASGOW        MOCLDY    32  30  92 SW5       29.36R
SIDNEY         CLOUDY    34  32  93 S8        29.38R
WOLF POINT     CLOUDY    33  30  88 W6        29.36R
GLENDIVE       CLOUDY    34  32  93 CALM      29.38R
MILES CITY     CLOUDY    40  36  86 W10       29.41R
BAKER          LGT RAIN  38  37  97 W14       29.38R
$$

CITY           SKY/WX    TMP DP  RH WIND       PRES   REMARKS
BILLINGS       CLOUDY    46  20  35 W26G36    29.52R
GREAT FALLS    CLOUDY    41  22  46 W16       29.57R
REGINA         PTCLDY    23  21  93 SE10      29.38  WCI  12
ESTEVAN        CLOUDY    25  25 100 E9        29.37R WCI  15
$$



USA.gov is the U.S. government's official web portal to all federal, state and local government web resources and services.